Franktown, CO

1:22 AM MST on February 08, 2016 (GMT -0700)
Monument Pass

Weather History for KMNH - January, 2014

Change the Weather History Date:

Thursday, January 30, 2014

  Actual Average Record
Temperature  
Mean Temperature 34 °F -  
Max Temperature 42 °F - 55 °F (2003)
Min Temperature 26 °F - -2 °F (2007)
Degree Days  
Heating Degree Days 31    
Month to date heating degree days  
Cooling Degree Days 0    
Month to date cooling degree days  
Moisture  
Dew Point 28 °F    
Average Humidity 81    
Maximum Humidity 100    
Minimum Humidity 49    
Precipitation  
Precipitation 0.01 in - 0.20 in (2005)
Sea Level Pressure  
Sea Level Pressure 29.63 in    
Wind  
Wind Speed 15 mph (SSE)    
Max Wind Speed 33 mph    
Max Gust Speed 45 mph    
Visibility 9 miles    
Events Rain , Snow    
T = Trace of Precipitation, MM = Missing Value Source: NWS Daily Summary

Daily Weather History Graph

Daily Weather History Graph

Search for Another Location

Airport or City:

Trip Planner

Search our weather history database for the weather conditions in past years. The results will help you decide how hot, cold, wet, or windy it might be!

Date:

Astronomy

Jan. 30, 2014 Rise Set
Actual Time 7:07 AM MST 5:17 PM MST
Civil Twilight 6:38 AM MST 5:45 PM MST
Nautical Twilight 6:06 AM MST 6:17 PM MST
Astronomical Twilight 5:35 AM MST 6:49 PM MST
Moon 6:35 AM MST (1/30) 5:31 PM MST (1/30)
Length of Visible Light 11h 06m
Length of Day
10h 09m
Waning Crescent, 0% of the Moon is Illuminated
Jan 30
Waning Crescent
Jan 30
New
Feb 6
First Quarter
Feb 14
Full
Feb 22
Last Quarter

Hourly Weather History & Observations

Time (MST) Temp. Windchill Dew Point Humidity Pressure Visibility Wind Dir Wind Speed Gust Speed Precip Events Conditions
12:11 AM 42.8 °F 32.5 °F 24.8 °F 49% 29.51 in 10.0 mi WSW 28.8 mph 36.8 mph N/A   Clear
12:32 AM 42.8 °F 31.8 °F 24.8 °F 49% 29.48 in 10.0 mi WSW 33.4 mph 44.9 mph N/A   Clear
12:52 AM 42.8 °F 32.9 °F 26.6 °F 53% 29.48 in 10.0 mi WSW 26.5 mph 41.4 mph N/A   Clear
1:11 AM 42.8 °F 32.9 °F 26.6 °F 53% 29.49 in 10.0 mi WSW 26.5 mph 40.3 mph N/A   Clear
1:31 AM 42.8 °F 34.3 °F 26.6 °F 53% 29.50 in 10.0 mi WSW 19.6 mph 32.2 mph N/A   Clear
1:52 AM 42.8 °F 33.5 °F 26.6 °F 53% 29.52 in 10.0 mi West 23.0 mph 31.1 mph N/A   Clear
2:12 AM 42.8 °F 33.3 °F 26.6 °F 53% 29.53 in 10.0 mi West 24.2 mph 32.2 mph N/A   Clear
2:32 AM 41.0 °F 33.1 °F 26.6 °F 57% 29.56 in 10.0 mi WNW 15.0 mph - N/A   Clear
2:52 AM 41.0 °F 31.6 °F 26.6 °F 57% 29.57 in 10.0 mi WNW 20.7 mph 27.6 mph N/A   Clear
3:12 AM 37.4 °F 28.9 °F 28.4 °F 70% 29.57 in 10.0 mi NNW 13.8 mph - N/A   Clear
3:32 AM 35.6 °F 27.1 °F 28.4 °F 75% 29.58 in 10.0 mi NNW 12.7 mph - N/A   Clear
3:51 AM 35.6 °F 26.6 °F 30.2 °F 81% 29.59 in 10.0 mi NNW 13.8 mph - N/A   Scattered Clouds
4:12 AM 35.6 °F 25.9 °F 32.0 °F 87% 29.60 in 10.0 mi North 16.1 mph 20.7 mph N/A   Drizzle
4:32 AM 33.8 °F 24.8 °F 32.0 °F 93% 29.61 in 10.0 mi North 12.7 mph - N/A   Drizzle
4:52 AM 33.8 °F 23.9 °F 32.0 °F 93% 29.63 in 10.0 mi North 15.0 mph 18.4 mph N/A Rain Light Rain
5:11 AM 32.0 °F 21.6 °F 32.0 °F 100% 29.64 in 5.0 mi NNW 15.0 mph 19.6 mph N/A Snow Light Snow
5:31 AM 32.0 °F 23.0 °F 32.0 °F 100% 29.63 in 7.0 mi North 11.5 mph - N/A Snow Light Snow
5:51 AM 32.0 °F 25.6 °F 32.0 °F 100% 29.63 in 10.0 mi NNW 6.9 mph - N/A   Overcast
6:11 AM 32.0 °F 26.4 °F 30.2 °F 93% 29.64 in 10.0 mi NNW 5.8 mph - N/A   Overcast
6:31 AM 32.0 °F 23.6 °F 30.2 °F 93% 29.65 in 10.0 mi North 10.4 mph - N/A   Overcast
6:51 AM 32.0 °F 24.8 °F 30.2 °F 93% 29.66 in 10.0 mi NNE 8.1 mph - N/A   Overcast
7:11 AM 32.0 °F 27.5 °F 28.4 °F 87% 29.67 in 10.0 mi NNE 4.6 mph - N/A   Overcast
7:31 AM 30.2 °F 25.4 °F 28.4 °F 93% 29.67 in 10.0 mi NNE 4.6 mph - N/A   Overcast
7:51 AM 30.2 °F 26.7 °F 28.4 °F 93% 29.68 in 10.0 mi NE 3.5 mph - N/A   Overcast
8:11 AM 32.0 °F 28.7 °F 28.4 °F 87% 29.68 in 10.0 mi ENE 3.5 mph - N/A   Overcast
8:31 AM 32.0 °F 27.5 °F 28.4 °F 87% 29.68 in 10.0 mi NNE 4.6 mph - N/A   Overcast
8:51 AM 32.0 °F - 28.4 °F 87% 29.69 in 10.0 mi Calm Calm - N/A   Overcast
9:10 AM 32.0 °F 28.7 °F 26.6 °F 80% 29.69 in 10.0 mi North 3.5 mph - N/A   Overcast
9:31 AM 33.8 °F 30.8 °F 26.6 °F 75% 29.69 in 10.0 mi North 3.5 mph - N/A   Overcast
9:50 AM 33.8 °F 30.8 °F 26.6 °F 75% 29.70 in 10.0 mi North 3.5 mph - N/A   Overcast
10:11 AM 33.8 °F - 26.6 °F 75% 29.70 in 10.0 mi Calm Calm - N/A   Overcast
10:31 AM 33.8 °F - 26.6 °F 75% 29.71 in 10.0 mi Calm Calm - N/A   Overcast
10:51 AM 33.8 °F - 24.8 °F 70% 29.71 in 10.0 mi Calm Calm - N/A   Overcast
11:11 AM 33.8 °F - 24.8 °F 70% 29.71 in 10.0 mi Calm Calm - N/A   Overcast
11:31 AM 35.6 °F - 23.0 °F 60% 29.69 in 10.0 mi Calm Calm - N/A   Overcast
11:51 AM 35.6 °F - 23.0 °F 60% 29.69 in 10.0 mi Calm Calm - N/A   Overcast
12:10 PM 35.6 °F - 21.2 °F 56% 29.68 in 10.0 mi Calm Calm - N/A   Overcast
12:31 PM 35.6 °F - 21.2 °F 56% 29.67 in 10.0 mi Calm Calm - N/A   Overcast
12:51 PM 35.6 °F 32.8 °F 21.2 °F 56% 29.66 in 10.0 mi East 3.5 mph - N/A   Overcast
1:11 PM 35.6 °F 32.8 °F 23.0 °F 60% 29.66 in 10.0 mi ESE 3.5 mph - N/A   Overcast
1:31 PM 35.6 °F 27.1 °F 26.6 °F 70% 29.65 in 10.0 mi South 12.7 mph - N/A   Overcast
1:50 PM 35.6 °F 25.2 °F 28.4 °F 75% 29.65 in 10.0 mi SSE 18.4 mph - N/A   Overcast
2:11 PM 33.8 °F 23.5 °F 28.4 °F 81% 29.65 in 10.0 mi SSE 16.1 mph - N/A   Overcast
2:31 PM 33.8 °F 23.2 °F 28.4 °F 81% 29.65 in 10.0 mi SSE 17.3 mph 23.0 mph N/A   Overcast
2:51 PM 33.8 °F 23.2 °F 30.2 °F 87% 29.64 in 10.0 mi SSE 17.3 mph 25.3 mph N/A   Overcast
3:11 PM 33.8 °F 22.2 °F 30.2 °F 87% 29.63 in 10.0 mi SSE 20.7 mph - N/A   Overcast
3:30 PM 32.0 °F 20.1 °F 30.2 °F 93% 29.64 in 10.0 mi SSE 19.6 mph 24.2 mph N/A   Overcast
3:51 PM 32.0 °F 21.6 °F 30.2 °F 93% 29.63 in 10.0 mi SSE 15.0 mph - N/A   Overcast
4:11 PM 32.0 °F 20.5 °F 30.2 °F 93% 29.63 in 10.0 mi SSE 18.4 mph 24.2 mph N/A   Overcast
4:31 PM 32.0 °F 20.1 °F 30.2 °F 93% 29.64 in 10.0 mi SSE 19.6 mph 24.2 mph N/A   Overcast
4:51 PM 32.0 °F 20.8 °F 30.2 °F 93% 29.63 in 10.0 mi SSE 17.3 mph 26.5 mph N/A   Overcast
5:10 PM 32.0 °F 20.8 °F 30.2 °F 93% 29.63 in 10.0 mi SSE 17.3 mph 24.2 mph N/A Snow Light Snow
5:30 PM 32.0 °F 20.1 °F 28.4 °F 87% 29.63 in 10.0 mi SSE 19.6 mph 28.8 mph N/A   Overcast
5:50 PM 32.0 °F 20.8 °F 28.4 °F 87% 29.64 in 10.0 mi SSE 17.3 mph 25.3 mph N/A   Overcast
6:10 PM 30.2 °F 18.1 °F 28.4 °F 93% 29.65 in 10.0 mi SSE 18.4 mph 23.0 mph N/A   Overcast
6:31 PM 30.2 °F 20.2 °F 28.4 °F 93% 29.66 in 10.0 mi SSE 12.7 mph 18.4 mph N/A   Overcast
6:51 PM 30.2 °F 20.8 °F 28.4 °F 93% 29.65 in 10.0 mi SSE 11.5 mph - N/A   Overcast
7:11 PM 30.2 °F 20.8 °F 26.6 °F 86% 29.66 in 10.0 mi South 11.5 mph - N/A   Overcast
7:31 PM 30.2 °F 23.4 °F 28.4 °F 93% 29.66 in 5.0 mi SSE 6.9 mph - N/A Snow Light Snow
7:51 PM 30.2 °F 22.6 °F 28.4 °F 93% 29.65 in 2.5 mi SSE 8.1 mph - N/A Snow Light Snow
8:11 PM 30.2 °F 21.9 °F 28.4 °F 93% 29.64 in 3.0 mi SSE 9.2 mph - N/A Snow Light Snow
8:30 PM 28.4 °F 19.7 °F 28.4 °F 100% 29.63 in 1.8 mi SE 9.2 mph - N/A Snow Light Snow
8:51 PM 28.4 °F 19.1 °F 26.6 °F 93% 29.64 in 3.0 mi SSE 10.4 mph - N/A Snow Light Snow
9:11 PM 28.4 °F 19.1 °F 26.6 °F 93% 29.63 in 2.5 mi SSE 10.4 mph - N/A Snow Light Snow
9:31 PM 28.4 °F 19.1 °F 26.6 °F 93% 29.62 in 2.0 mi SE 10.4 mph - N/A Snow Light Snow
9:51 PM 28.4 °F 21.2 °F 26.6 °F 93% 29.63 in 1.2 mi SSE 6.9 mph - 0.01 in Snow Light Snow
10:11 PM 28.4 °F 19.1 °F 26.6 °F 93% 29.63 in 5.0 mi SSE 10.4 mph - N/A Snow Light Snow
10:32 PM 26.6 °F 17.5 °F 26.6 °F 100% 29.63 in 5.0 mi SSE 9.2 mph - N/A Snow Light Snow
10:52 PM 26.6 °F 17.5 °F 26.6 °F 100% 29.62 in 7.0 mi SSE 9.2 mph - N/A Snow Light Snow
11:12 PM 26.6 °F 17.5 °F 24.8 °F 93% 29.61 in 5.0 mi SE 9.2 mph - N/A Snow Light Snow
11:31 PM 26.6 °F 22.6 °F 24.8 °F 93% 29.63 in 1.5 mi SSE 3.5 mph - N/A Snow Light Snow
11:52 PM 26.6 °F 17.5 °F 23.0 °F 86% 29.61 in 3.0 mi SSE 9.2 mph - N/A Snow Light Snow